[[{"header":{"parameterUnit":"m.s-1","parameterCategory":1,"la1":30.2991,"la2":30.254,"lo1":-89.0895,"lo2":-89.0444,"dy":0.0017,"dx":0.0017,"nx":28,"ny":28,"refTime":"2025-02-02T09:00:00:Z","depth":0,"parameterNumber":2,"parameterNumberName":"U-component_of_WINDS"},"data":[0,0,0,0,0,0,0,0,0,0,0,0,0,0,0,0,0,0,0,0,0,0,0,0,0,0,0,0,0,0,0,0,0,0,0,0,0,0,0,0,0,0,0,0,0,0,0,0,0,0,0,0,0,0,0,0,0,0,-1.6137,-1.6137,0,-1.6198,-1.6198,-1.6199,-1.6168,-1.6167,-1.6165,-1.6164,-1.6225,-1.6228,-1.6231,0,0,0,0,0,0,0,0,0,0,0,0,0,-1.5994,-1.5997,-1.6137,-1.6137,-1.6138,-1.6197,-1.6198,-1.6199,-1.6169,-1.6167,-1.6165,-1.6163,-1.6224,-1.6228,-1.6232,0,0,0,0,0,0,0,0,0,0,0,0,0,-1.6055,-1.5998,-1.6136,-1.613,-1.613,-1.6197,-1.6198,-1.6199,-1.6169,-1.6167,-1.6164,-1.6162,-1.6223,-1.6227,-1.6232,-1.6309,0,0,-1.6246,-1.6248,0,0,0,0,0,0,0,0,-1.6052,-1.6061,-1.613,-1.6131,-1.6131,-1.6173,-1.617,-1.6236,-1.617,-1.6154,-1.6164,-1.6161,-1.621,-1.6215,-1.6232,-1.6312,-1.6314,-1.6247,-1.625,-1.6252,-1.6253,0,0,0,0,0,0,0,-1.6048,-1.6058,-1.6161,-1.6131,-1.6132,-1.6124,-1.613,-1.6183,-1.6195,-1.6155,-1.6153,-1.6161,-1.6209,-1.6227,-1.6233,-1.6315,-1.6247,-1.6251,-1.6254,-1.6256,-1.6461,-1.6464,0,0,0,0,0,0,-1.6044,-1.6055,-1.6159,-1.6162,-1.6085,-1.6129,-1.6136,-1.6162,-1.6194,-1.6197,-1.6163,-1.6159,-1.6221,-1.6228,-1.6235,-1.6327,-1.6252,-1.6256,-1.6259,-1.6459,-1.6462,-1.6465,0,0,0,0,0,0,-1.6041,-1.6053,-1.6156,-1.6108,-1.6121,-1.6134,-1.6163,-1.6164,-1.6182,-1.62,-1.6202,-1.6179,-1.6219,-1.6229,-1.6291,-1.6329,-1.6258,-1.6262,-1.6455,-1.646,-1.6463,-1.6511,0,0,0,0,0,0,-1.6037,-1.6053,-1.6082,-1.6109,-1.6123,-1.6211,-1.6166,-1.6167,-1.6191,-1.6186,-1.6215,-1.6218,-1.6218,-1.6284,-1.6295,-1.6334,-1.6266,-1.6452,-1.6457,-1.6462,-1.6506,-1.6516,-1.6525,0,0,0,0,0,-1.6032,-1.6092,-1.6083,-1.6096,-1.616,-1.6213,-1.6221,-1.622,-1.6194,-1.6223,-1.6235,-1.6217,-1.6323,-1.6291,-1.6303,-1.6343,-1.645,-1.6456,-1.6462,-1.6502,-1.6514,-1.6524,0,0,0,0,0,0,-1.6069,-1.6096,-1.6086,-1.6157,-1.6183,-1.6208,-1.6245,-1.6233,-1.6267,-1.6262,-1.6259,-1.6266,-1.633,-1.6343,-1.6307,-1.642,-1.6382,-1.6391,-1.6408,-1.642,-1.6429,-1.6424,-1.627,0,0,0,0,0,-1.6085,-1.6126,-1.6148,-1.6208,-1.6222,-1.6232,-1.6255,-1.6252,-1.6278,-1.6289,-1.6305,-1.6331,-1.6371,-1.6396,-1.6433,-1.6508,-1.6514,-1.6542,-1.6552,-1.6559,-1.6566,-1.6607,-1.662,-1.6484,-1.6484,-1.6484,0,0,-1.6119,-1.6139,-1.6165,-1.6216,-1.6236,-1.6279,-1.6241,-1.6287,-1.6319,-1.6296,-1.6356,-1.6369,-1.6398,-1.6467,-1.6498,-1.648,-1.6606,-1.6567,-1.6573,-1.6576,-1.6615,-1.6627,-1.6639,-1.6488,-1.6488,-1.6487,0,0,-1.6203,-1.6223,-1.6275,-1.6296,-1.6327,-1.6333,-1.6346,-1.6373,-1.6381,-1.6441,-1.6425,-1.6462,-1.653,-1.6552,-1.6571,-1.6665,-1.665,-1.6678,-1.6726,-1.6765,-1.6776,-1.6785,-1.6818,-1.683,-1.6685,-1.6685,-1.6685,0,-1.6241,-1.6305,-1.6304,-1.6352,-1.6375,-1.6357,-1.6411,-1.6431,-1.6472,-1.6488,-1.6468,-1.6553,-1.6571,-1.6645,-1.6668,-1.6685,-1.6699,-1.6673,-1.6775,-1.6784,-1.6793,-1.6824,-1.6837,-1.6688,-1.6688,-1.6687,-1.6687,0,-1.635,-1.6395,-1.6434,-1.6475,-1.6502,-1.6553,-1.6559,-1.6587,-1.6583,-1.6591,-1.6653,-1.6675,-1.6716,-1.6734,-1.6729,-1.6807,-1.6795,-1.6775,-1.6737,-1.6809,-1.6838,-1.685,-1.6692,-1.6691,-1.669,-1.669,0,0,-1.6457,-1.6498,-1.6512,-1.653,-1.6564,-1.6598,-1.6648,-1.6689,-1.6713,-1.6743,-1.6785,-1.6843,-1.6825,-1.6847,-1.6846,-1.6881,-1.6953,-1.6856,-1.6857,-1.6873,-1.704,-1.7054,-1.7068,-1.6944,-1.6947,-1.6948,-1.7037,0,-1.6543,-1.663,-1.6631,-1.6712,-1.6753,-1.6737,-1.6781,-1.6806,-1.6816,-1.6852,-1.6863,-1.6904,-1.6877,-1.6891,-1.6925,-1.6937,-1.6986,-1.6931,-1.6982,-1.6984,-1.6974,-1.7083,-1.7098,-1.7181,-1.7049,-1.7051,-1.7052,0,-1.6653,-1.6687,-1.6772,-1.68,-1.6817,-1.6856,-1.6894,-1.6929,-1.6958,-1.6963,-1.6989,-1.6982,-1.7033,-1.6995,-1.7065,-1.7027,-1.7049,-1.7058,-1.7061,-1.7065,-1.7021,-1.7089,-1.7207,-1.7219,-1.707,-1.7069,-1.7068,0,-1.6722,-1.6789,-1.6848,-1.6864,-1.6899,-1.6927,-1.6942,-1.6969,-1.6994,-1.7027,-1.7043,-1.7082,-1.7103,-1.7133,-1.7137,-1.7109,-1.7208,-1.717,-1.7212,-1.7212,-1.7232,-1.7231,-1.7355,-1.7249,-1.7248,-1.7248,-1.7248,0,-1.6817,-1.6869,-1.6879,-1.6915,-1.6974,-1.6975,-1.7033,-1.7046,-1.707,-1.7109,-1.7098,-1.7135,-1.7138,-1.7176,-1.718,-1.7237,-1.7247,-1.7252,-1.7252,-1.7252,-1.7251,-1.7265,-1.7259,-1.7251,-1.7251,-1.725,-1.7249,0,-1.6902,-1.6911,-1.6975,-1.7003,-1.7011,-1.7053,-1.7077,-1.7111,-1.7121,-1.717,-1.7181,-1.7196,-1.724,-1.7247,-1.7299,-1.7301,-1.737,-1.7364,-1.736,-1.7359,-1.7401,-1.7396,-1.7537,-1.7555,-1.7438,-1.7439,-1.744,0,-1.6961,-1.7001,-1.7034,-1.7059,-1.7076,-1.7117,-1.7143,-1.7146,-1.7173,-1.7209,-1.724,-1.7283,-1.7317,-1.7388,-1.7403,-1.7443,-1.7438,-1.7484,-1.7443,-1.7442,-1.7437,-1.7434,-1.7438,-1.7492,-1.7493,-1.7494,-1.7495,0,-1.7065,-1.7068,-1.7105,-1.7144,-1.7175,-1.7206,-1.7235,-1.7257,-1.7264,-1.7295,-1.734,-1.7367,-1.742,-1.7463,-1.7502,-1.7518,-1.7508,-1.7508,-1.752,-1.7519,-1.7515,-1.7517,-1.738,-1.7504,-1.7503,-1.7502,-1.7502,-1.7502,-1.7138,-1.7173,-1.7201,-1.7243,-1.7266,-1.7294,-1.7328,-1.7342,-1.738,-1.7424,-1.7424,-1.7473,-1.7501,-1.7554,-1.7573,-1.7611,-1.7596,-1.7613,-1.7617,-1.7621,-1.7625,-1.751,-1.7618,-1.7618,-1.7618,-1.7618,-1.7618,0,-1.724,-1.7258,-1.7297,-1.7339,-1.7372,-1.736,-1.7392,-1.7421,-1.7464,-1.7492,-1.7527,-1.7579,-1.7621,-1.7639,-1.7681,-1.7708,-1.7704,-1.7718,-1.7716,-1.772,-1.7636,-1.7622,-1.7721,-1.7721,-1.7721,-1.7721,-1.7721,-1.7721,-1.7297,-1.7355,-1.7362,-1.7432,-1.7449,-1.7498,-1.7517,-1.7543,-1.7565,-1.7624,-1.7659,-1.7671,-1.7695,-1.7738,-1.7776,-1.7781,-1.7796,-1.7812,-1.7814,-1.7736,-1.7725,-1.7715,-1.7701,-1.7816,-1.7816,-1.7894,-1.7895,-1.7895]},{"header":{"parameterUnit":"m.s-1","parameterCategory":1,"la1":30.2991,"la2":30.254,"lo1":-89.0895,"lo2":-89.0444,"dy":0.0017,"dx":0.0017,"nx":28,"ny":28,"refTime":"2025-02-02T09:00:00:Z","depth":0,"parameterNumber":3,"parameterNumberName":"V-component_of_WINDS"},"data":[0,0,0,0,0,0,0,0,0,0,0,0,0,0,0,0,0,0,0,0,0,0,0,0,0,0,0,0,0,0,0,0,0,0,0,0,0,0,0,0,0,0,0,0,0,0,0,0,0,0,0,0,0,0,0,0,0,0,1.1052,1.1052,0,1.109,1.109,1.109,1.1142,1.1143,1.1144,1.1145,1.118,1.118,1.118,0,0,0,0,0,0,0,0,0,0,0,0,0,1.1023,1.1024,1.1052,1.1052,1.1053,1.109,1.109,1.1091,1.1142,1.1143,1.1144,1.1145,1.1179,1.118,1.118,0,0,0,0,0,0,0,0,0,0,0,0,0,1.1046,1.1024,1.1052,1.1083,1.1086,1.1089,1.109,1.1091,1.1142,1.1143,1.1144,1.1145,1.1179,1.118,1.118,1.1154,0,0,1.118,1.118,0,0,0,0,0,0,0,0,1.1044,1.1047,1.1078,1.1081,1.1084,1.1113,1.1093,1.1112,1.1141,1.112,1.1145,1.1146,1.1156,1.1158,1.1162,1.1156,1.1158,1.118,1.118,1.118,1.1181,0,0,0,0,0,0,0,1.1043,1.1045,1.1067,1.1078,1.1082,1.1095,1.1099,1.1097,1.113,1.1122,1.1126,1.113,1.1158,1.1162,1.1163,1.1158,1.118,1.118,1.1181,1.1181,1.1136,1.1135,0,0,0,0,0,0,1.1037,1.1044,1.1066,1.1068,1.1067,1.1094,1.1099,1.1102,1.113,1.1136,1.1129,1.1132,1.1161,1.1163,1.1165,1.1139,1.118,1.1181,1.1181,1.1138,1.1136,1.1135,0,0,0,0,0,0,1.1036,1.1038,1.1064,1.1057,1.1061,1.1093,1.1096,1.1102,1.1106,1.1136,1.1141,1.1127,1.1162,1.1165,1.1158,1.1141,1.1181,1.1181,1.1139,1.1137,1.1135,1.1086,0,0,0,0,0,0,1.1035,1.1038,1.1029,1.1056,1.1061,1.1056,1.1095,1.1102,1.1107,1.1112,1.1135,1.114,1.1163,1.1157,1.1158,1.1142,1.1181,1.1141,1.1138,1.1136,1.1089,1.1083,1.1077,0,0,0,0,0,1.1034,1.1012,1.1028,1.103,1.1051,1.1055,1.1058,1.1086,1.1105,1.1096,1.1116,1.114,1.1143,1.1156,1.1157,1.1141,1.1142,1.1139,1.1136,1.1092,1.1084,1.1077,0,0,0,0,0,0,1.0979,1.1016,1.1034,1.102,1.1035,1.1064,1.1053,1.1076,1.1084,1.1088,1.1122,1.1126,1.1116,1.1128,1.1142,1.112,1.1146,1.1143,1.1112,1.1105,1.1099,1.1096,1.1181,0,0,0,0,0,1.0966,1.0967,1.0999,1.0984,1.099,1.1021,1.1024,1.1044,1.106,1.1066,1.1084,1.1098,1.1102,1.1104,1.1109,1.1091,1.1098,1.1081,1.1075,1.107,1.1067,1.1061,1.1054,1.1125,1.1125,1.1125,0,0,1.0937,1.0958,1.0956,1.0974,1.0987,1.0988,1.1025,1.1023,1.1025,1.1065,1.1061,1.1075,1.1092,1.108,1.1076,1.109,1.1049,1.1066,1.1062,1.1062,1.1057,1.105,1.1044,1.1123,1.1124,1.1124,0,0,1.0887,1.0902,1.0892,1.0906,1.0927,1.0947,1.0945,1.0972,1.0983,1.098,1.1011,1.1012,1.1018,1.103,1.1037,1.0994,1.1017,1.0995,1.0963,1.0956,1.095,1.0946,1.0932,1.0926,1.0992,1.0992,1.0992,0,1.0849,1.0852,1.0884,1.0882,1.0889,1.0928,1.0919,1.093,1.095,1.0954,1.097,1.0981,1.0995,1.0988,1.0978,1.0981,1.098,1.0992,1.0949,1.0944,1.094,1.0928,1.0922,1.0989,1.0989,1.099,1.099,0,1.0805,1.0807,1.0796,1.0818,1.0824,1.0818,1.0849,1.0852,1.0872,1.0892,1.0888,1.0907,1.0918,1.0918,1.0937,1.0914,1.0922,1.0943,1.097,1.093,1.0919,1.0914,1.0985,1.0986,1.0987,1.0988,0,0,1.0719,1.0761,1.0757,1.0768,1.0795,1.0797,1.0793,1.0806,1.0808,1.0821,1.082,1.0826,1.0846,1.0854,1.0875,1.0869,1.0836,1.0891,1.0892,1.0881,1.0814,1.0799,1.0792,1.0852,1.0851,1.085,1.0813,0,1.0674,1.0672,1.0702,1.0691,1.0694,1.0732,1.0729,1.0745,1.0764,1.0769,1.0789,1.0793,1.0819,1.0824,1.082,1.0841,1.0823,1.0844,1.0851,1.085,1.0846,1.0786,1.077,1.0733,1.0808,1.0808,1.0807,0,1.0621,1.0634,1.0624,1.0655,1.0657,1.0654,1.0669,1.0673,1.0693,1.0707,1.0717,1.0743,1.0742,1.0768,1.0768,1.0781,1.0786,1.0797,1.0796,1.0798,1.0826,1.0787,1.0722,1.0717,1.08,1.0801,1.0801,0,1.0561,1.0576,1.0573,1.0581,1.0616,1.0613,1.0627,1.0649,1.0655,1.0669,1.0674,1.0686,1.0692,1.0701,1.0729,1.0746,1.0726,1.0754,1.0738,1.0738,1.0732,1.0732,1.0668,1.0734,1.0734,1.0734,1.0734,0,1.0509,1.0501,1.0547,1.0545,1.0538,1.0573,1.0566,1.0584,1.0603,1.0605,1.0638,1.0639,1.0676,1.0682,1.0704,1.0701,1.0703,1.0715,1.0721,1.0712,1.0711,1.0716,1.072,1.0733,1.0733,1.0734,1.0734,0,1.044,1.0471,1.047,1.0504,1.0513,1.0506,1.0535,1.0535,1.0556,1.0559,1.0562,1.0595,1.0604,1.0633,1.0648,1.0663,1.0654,1.0665,1.0647,1.0651,1.0634,1.0636,1.0571,1.0565,1.0634,1.0633,1.0633,0,1.0405,1.0401,1.0435,1.044,1.0453,1.046,1.0468,1.0502,1.0509,1.0533,1.053,1.0542,1.0553,1.0565,1.059,1.0602,1.0614,1.0591,1.0616,1.0609,1.0616,1.0616,1.0616,1.0585,1.0584,1.0584,1.0583,0,1.0339,1.0355,1.0366,1.0382,1.0391,1.0405,1.0421,1.0423,1.0462,1.0467,1.0478,1.0487,1.0504,1.0515,1.0532,1.0547,1.0571,1.0575,1.0573,1.0564,1.0555,1.0561,1.0633,1.0576,1.0577,1.0578,1.0578,1.0578,1.0287,1.0286,1.0311,1.0322,1.0339,1.0353,1.0356,1.0379,1.0388,1.0406,1.0426,1.0434,1.0456,1.0482,1.0495,1.0502,1.0515,1.0511,1.051,1.0508,1.0505,1.0553,1.0505,1.0505,1.0505,1.0506,1.0506,0,1.0224,1.0243,1.0253,1.0276,1.0285,1.0309,1.0329,1.0335,1.0342,1.0361,1.0373,1.0386,1.0398,1.0425,1.044,1.044,1.0452,1.0443,1.0444,1.0447,1.0491,1.0493,1.0433,1.0433,1.0433,1.0433,1.0433,1.0433,1.0193,1.0193,1.0213,1.0222,1.024,1.025,1.026,1.0274,1.029,1.0303,1.0314,1.0332,1.0355,1.0373,1.0385,1.0393,1.0397,1.0384,1.0396,1.0437,1.0444,1.045,1.0452,1.0385,1.0385,1.0351,1.0351,1.0351]}]]